Torna al catalogo

STARLINK-30076

AttivoComunicazioniVLEO
NORAD 56839·PAYLOAD·🇺🇸 United States

Lanciato Jun 4, 2023 da Cape Canaveral Space Force Station

Loading…

Prossimi Passaggi (prossime 24 ore)

TLE

AggiornatoSource: CelesTrak SupGP

Epoca: Sep 15, 2026, 02:25 UTC

1 56839C 23079S   26258.10118056  .00059481  00000+0  21547-2 0  2582
2 56839  43.0008 117.3368 0001546 277.6846 179.3004 15.27544436    19

Traccia STARLINK-30076 in tempo reale con AllMySat

Download on the App Store